When you browse on this site, cookies collect data to enhance your experience and personalize the content and advertising you see.
Visit our Privacy Policy to learn more. By continuing to use the site, you agree to this use of cookies and data.
  • In Czech Republic
  • List of Countries
  • For 7 days
  • Water Temperature
  • Satellite Maps
  • Weather Map
  • Weather Widgets
  • user-avatar
    Login

    Hourly Weather Viedma

    Today, 17 January, Thursday

    Time Temperature Precipitation Wind Pressure Humidity
    00:00 +15°C° 0 mm 5 mps 764 mmHg 49%
    01:00 +15°C° 0 mm 4 mps 764 mmHg 50%
    02:00 +14°C° 0 mm 3 mps 764 mmHg 51%
    03:00 +15°C° 0 mm 2 mps 764 mmHg 52%
    04:00 +15°C° 0 mm 2 mps 765 mmHg 54%
    05:00 +14°C° 0 mm 2 mps 765 mmHg 55%
    06:00 +16°C° 0 mm 2 mps 765 mmHg 50%
    07:00 +17°C° 0 mm 3 mps 766 mmHg 44%
    08:00 +19°C° 0 mm 3 mps 766 mmHg 39%
    09:00 +20°C° 0 mm 3 mps 766 mmHg 35%
    10:00 +21°C° 0 mm 3 mps 766 mmHg 31%
    11:00 +22°C° 0 mm 3 mps 766 mmHg 28%
    12:00 +24°C° 0 mm 3 mps 766 mmHg 26%
    13:00 +25°C° 0 mm 3 mps 766 mmHg 24%
    14:00 +26°C° 0 mm 3 mps 766 mmHg 22%
    15:00 +26°C° 0 mm 3 mps 765 mmHg 22%
    16:00 +26°C° 0 mm 4 mps 765 mmHg 23%
    17:00 +26°C° 0 mm 4 mps 764 mmHg 23%
    18:00 +23°C° 0 mm 5 mps 764 mmHg 28%
    19:00 +21°C° 0 mm 6 mps 764 mmHg 33%
    20:00 +20°C° 0 mm 6 mps 764 mmHg 37%
    21:00 +19°C° 0 mm 6 mps 764 mmHg 43%
    22:00 +17°C° 0 mm 6 mps 764 mmHg 48%
    23:00 +16°C° 0 mm 7 mps 765 mmHg 54%

    Tomorrow, 18 January, Friday

    Time Temperature Precipitation Wind Pressure Humidity
    00:00 +16°C° 0 mm 6 mps 764 mmHg 55%
    01:00 +16°C° 0 mm 6 mps 764 mmHg 57%
    02:00 +16°C° 0 mm 5 mps 764 mmHg 58%
    03:00 +15°C° 0 mm 5 mps 764 mmHg 58%
    04:00 +15°C° 0 mm 5 mps 764 mmHg 59%
    05:00 +15°C° 0 mm 6 mps 764 mmHg 60%
    06:00 +17°C° 0 mm 6 mps 764 mmHg 51%
    07:00 +20°C° 0 mm 6 mps 764 mmHg 42%
    08:00 +22°C° 0 mm 6 mps 764 mmHg 33%
    09:00 +24°C° 0 mm 6 mps 763 mmHg 27%
    10:00 +28°C° 0 mm 6 mps 763 mmHg 22%
    11:00 +30°C° 0 mm 6 mps 763 mmHg 16%
    12:00 +32°C° 0 mm 6 mps 763 mmHg 15%
    13:00 +33°C° 0 mm 6 mps 762 mmHg 14%
    14:00 +34°C° 0 mm 5 mps 762 mmHg 13%
    15:00 +34°C° 0 mm 6 mps 761 mmHg 13%
    16:00 +34°C° 0 mm 6 mps 761 mmHg 13%
    17:00 +34°C° 0 mm 6 mps 760 mmHg 14%
    18:00 +30°C° 0 mm 7 mps 760 mmHg 16%
    19:00 +28°C° 0 mm 8 mps 760 mmHg 18%
    20:00 +26°C° 0 mm 9 mps 760 mmHg 20%
    21:00 +24°C° 0 mm 8 mps 760 mmHg 24%
    22:00 +23°C° 0 mm 8 mps 760 mmHg 28%
    23:00 +22°C° 0 mm 8 mps 760 mmHg 32%

    Day after tomorrow, 19 January, Saturday

    Time Temperature Precipitation Wind Pressure Humidity
    00:00 +22°C° 0 mm 7 mps 760 mmHg 34%
    01:00 +22°C° 0 mm 7 mps 760 mmHg 36%
    02:00 +22°C° 0 mm 7 mps 760 mmHg 37%
    03:00 +22°C° 0 mm 6 mps 760 mmHg 34%
    04:00 +21°C° 0 mm 6 mps 760 mmHg 31%
    05:00 +21°C° 0 mm 6 mps 760 mmHg 28%
    06:00 +23°C° 0 mm 6 mps 760 mmHg 26%
    07:00 +26°C° 0 mm 7 mps 760 mmHg 24%
    08:00 +28°C° 0 mm 8 mps 760 mmHg 22%
    09:00 +31°C° 0 mm 8 mps 760 mmHg 19%
    10:00 +33°C° 0 mm 8 mps 760 mmHg 16%
    11:00 +34°C° 0 mm 8 mps 759 mmHg 13%
    12:00 +35°C° 0 mm 8 mps 759 mmHg 13%
    13:00 +37°C° 0 mm 8 mps 758 mmHg 12%
    14:00 +38°C° 0 mm 8 mps 758 mmHg 11%
    15:00 +38°C° 0 mm 8 mps 757 mmHg 11%
    16:00 +38°C° 0 mm 8 mps 757 mmHg 11%
    17:00 +38°C° 0 mm 8 mps 756 mmHg 11%
    18:00 +35°C° 0 mm 8 mps 756 mmHg 15%
    19:00 +33°C° 0 mm 7 mps 756 mmHg 19%
    20:00 +30°C° 0 mm 7 mps 756 mmHg 24%
    21:00 +29°C° 0 mm 7 mps 756 mmHg 29%
    22:00 +28°C° 0 mm 7 mps 756 mmHg 34%
    23:00 +27°C° 0 mm 7 mps 756 mmHg 39%

    20 January, Sunday

    Time Temperature Precipitation Wind Pressure Humidity
    00:00 +27°C° 0 mm 8 mps 755 mmHg 37%
    01:00 +27°C° 0 mm 8 mps 755 mmHg 35%
    02:00 +28°C° 0 mm 9 mps 754 mmHg 33%
    03:00 +27°C° 0 mm 9 mps 754 mmHg 37%
    04:00 +26°C° 0 mm 9 mps 754 mmHg 42%
    05:00 +26°C° 0 mm 10 mps 754 mmHg 46%
    06:00 +27°C° 0 mm 10 mps 754 mmHg 44%
    07:00 +27°C° 0 mm 10 mps 754 mmHg 42%
    08:00 +28°C° 0 mm 10 mps 755 mmHg 40%
    09:00 +31°C° 0 mm 10 mps 754 mmHg 36%
    10:00 +33°C° 0 mm 10 mps 754 mmHg 32%
    11:00 +34°C° 0 mm 10 mps 753 mmHg 28%
    12:00 +37°C° 0 mm 10 mps 753 mmHg 26%
    13:00 +38°C° 0 mm 9 mps 752 mmHg 24%
    14:00 +39°C° 0 mm 9 mps 751 mmHg 22%
    15:00 +39°C° 0 mm 9 mps 750 mmHg 21%
    16:00 +40°C° 0 mm 9 mps 750 mmHg 21%
    17:00 +40°C° 0 mm 9 mps 749 mmHg 20%
    18:00 +39°C° 0.4 mm 8 mps 749 mmHg 23%
    19:00 +36°C° 0.4 mm 7 mps 748 mmHg 26%
    20:00 +35°C° 0.4 mm 7 mps 748 mmHg 29%
    21:00 +34°C° 0.4 mm 8 mps 748 mmHg 32%
    22:00 +33°C° 0.4 mm 9 mps 748 mmHg 36%
    23:00 +32°C° 0.4 mm 10 mps 748 mmHg 39%

    21 January, Monday

    Time Temperature Precipitation Wind Pressure Humidity
    00:00 +31°C° 0.1 mm 10 mps 748 mmHg 39%
    01:00 +31°C° 0.1 mm 9 mps 748 mmHg 40%
    02:00 +29°C° 0.1 mm 9 mps 749 mmHg 41%
    03:00 +27°C° 0 mm 9 mps 749 mmHg 46%
    04:00 +24°C° 0 mm 9 mps 749 mmHg 51%
    05:00 +22°C° 0 mm 8 mps 750 mmHg 56%
    06:00 +23°C° 0 mm 8 mps 750 mmHg 48%
    07:00 +24°C° 0 mm 8 mps 751 mmHg 41%
    08:00 +26°C° 0 mm 9 mps 752 mmHg 34%
    09:00 +27°C° 0 mm 8 mps 752 mmHg 30%
    10:00 +28°C° 0 mm 7 mps 752 mmHg 27%
    11:00 +29°C° 0 mm 7 mps 753 mmHg 24%
    12:00 +29°C° 0 mm 6 mps 752 mmHg 23%
    13:00 +30°C° 0 mm 6 mps 752 mmHg 22%
    14:00 +32°C° 0 mm 6 mps 752 mmHg 22%
    15:00 +32°C° 0 mm 4 mps 752 mmHg 22%
    16:00 +30°C° 0 mm 3 mps 751 mmHg 21%
    17:00 +30°C° 0 mm 2 mps 750 mmHg 21%
    18:00 +28°C° 0 mm 4 mps 750 mmHg 29%
    19:00 +26°C° 0 mm 6 mps 750 mmHg 36%
    20:00 +23°C° 0 mm 8 mps 749 mmHg 44%
    21:00 +23°C° 0 mm 8 mps 749 mmHg 43%
    22:00 +23°C° 0 mm 8 mps 749 mmHg 43%
    23:00 +23°C° 0 mm 8 mps 749 mmHg 43%

    22 January, Tuesday

    Time Temperature Precipitation Wind Pressure Humidity
    00:00 +23°C° 0 mm 8 mps 748 mmHg 42%
    01:00 +23°C° 0 mm 7 mps 747 mmHg 42%
    02:00 +23°C° 0 mm 7 mps 747 mmHg 41%
    03:00 +23°C° 0 mm 7 mps 747 mmHg 36%
    04:00 +23°C° 0 mm 7 mps 746 mmHg 30%
    05:00 +24°C° 0 mm 7 mps 746 mmHg 24%
    06:00 +24°C° 0 mm 8 mps 747 mmHg 26%
    07:00 +26°C° 0 mm 9 mps 748 mmHg 27%
    08:00 +26°C° 0 mm 10 mps 749 mmHg 28%
    09:00 +26°C° 0 mm 10 mps 750 mmHg 25%
    10:00 +27°C° 0 mm 10 mps 750 mmHg 22%
    11:00 +27°C° 0 mm 9 mps 751 mmHg 19%
    12:00 +27°C° 0 mm 9 mps 751 mmHg 19%
    13:00 +27°C° 0 mm 9 mps 752 mmHg 18%
    14:00 +27°C° 0 mm 8 mps 752 mmHg 18%
    15:00 +27°C° 0 mm 8 mps 752 mmHg 16%
    16:00 +27°C° 0 mm 7 mps 752 mmHg 15%
    17:00 +26°C° 0 mm 7 mps 752 mmHg 13%
    18:00 +24°C° 0 mm 6 mps 753 mmHg 14%
    19:00 +23°C° 0 mm 5 mps 753 mmHg 15%
    20:00 +22°C° 0 mm 4 mps 754 mmHg 15%
    21:00 +21°C° 0 mm 4 mps 755 mmHg 23%
    22:00 +20°C° 0 mm 4 mps 755 mmHg 30%
    23:00 +19°C° 0 mm 4 mps 756 mmHg 38%
    Show more